When you browse on this site, cookies collect data to enhance your experience and personalize the content and advertising you see.
Visit our Privacy Policy to learn more. By continuing to use the site, you agree to this use of cookies and data.
  • In Romania
  • List of Countries
  • For 7 days
  • Water Temperature
  • Weather Map
  • Weather Widgets
  • user-avatar
    Login

    Hourly Weather Gaborone

    Today, 20 September, Friday

    Time Temperature Precipitation Wind Pressure Humidity
    00:00 +21°C° 0 mm 3 mps 681 mmHg 29%
    01:00 +20°C° 0 mm 2 mps 681 mmHg 34%
    02:00 +19°C° 0 mm 2 mps 681 mmHg 42%
    03:00 +18°C° 0 mm 2 mps 681 mmHg 48%
    04:00 +17°C° 0 mm 2 mps 681 mmHg 54%
    05:00 +17°C° 0 mm 2 mps 681 mmHg 60%
    06:00 +18°C° 0 mm 2 mps 681 mmHg 57%
    07:00 +19°C° 0 mm 2 mps 682 mmHg 55%
    08:00 +21°C° 0 mm 3 mps 683 mmHg 54%
    09:00 +24°C° 0 mm 3 mps 683 mmHg 43%
    10:00 +27°C° 0 mm 4 mps 683 mmHg 33%
    11:00 +30°C° 0 mm 4 mps 683 mmHg 22%
    12:00 +32°C° 0 mm 4 mps 682 mmHg 19%
    13:00 +34°C° 0 mm 5 mps 682 mmHg 15%
    14:00 +36°C° 0 mm 5 mps 681 mmHg 11%
    15:00 +35°C° 0 mm 5 mps 680 mmHg 11%
    16:00 +35°C° 0 mm 5 mps 680 mmHg 11%
    17:00 +35°C° 0 mm 5 mps 679 mmHg 11%
    18:00 +33°C° 0 mm 5 mps 679 mmHg 13%
    19:00 +29°C° 0 mm 4 mps 679 mmHg 16%
    20:00 +27°C° 0 mm 3 mps 679 mmHg 19%
    21:00 +26°C° 0 mm 3 mps 679 mmHg 20%
    22:00 +25°C° 0 mm 2 mps 679 mmHg 21%
    23:00 +24°C° 0 mm 2 mps 679 mmHg 23%

    Tomorrow, 21 September, Saturday

    Time Temperature Precipitation Wind Pressure Humidity
    00:00 +23°C° 0 mm 2 mps 679 mmHg 26%
    01:00 +21°C° 0 mm 2 mps 679 mmHg 29%
    02:00 +21°C° 0 mm 1 mps 678 mmHg 32%
    03:00 +19°C° 0 mm 2 mps 678 mmHg 36%
    04:00 +19°C° 0 mm 2 mps 678 mmHg 40%
    05:00 +18°C° 0 mm 2 mps 678 mmHg 44%
    06:00 +19°C° 0 mm 2 mps 678 mmHg 43%
    07:00 +21°C° 0 mm 3 mps 679 mmHg 42%
    08:00 +22°C° 0 mm 3 mps 679 mmHg 41%
    09:00 +26°C° 0 mm 4 mps 680 mmHg 36%
    10:00 +28°C° 0 mm 4 mps 680 mmHg 30%
    11:00 +32°C° 0 mm 4 mps 680 mmHg 25%
    12:00 +33°C° 0 mm 4 mps 679 mmHg 21%
    13:00 +34°C° 0 mm 4 mps 678 mmHg 18%
    14:00 +36°C° 0 mm 4 mps 678 mmHg 14%
    15:00 +35°C° 0 mm 4 mps 677 mmHg 13%
    16:00 +35°C° 0 mm 4 mps 677 mmHg 12%
    17:00 +35°C° 0 mm 4 mps 676 mmHg 12%
    18:00 +33°C° 0 mm 3 mps 676 mmHg 14%
    19:00 +29°C° 0 mm 3 mps 676 mmHg 16%
    20:00 +27°C° 0 mm 3 mps 676 mmHg 19%
    21:00 +26°C° 0 mm 2 mps 676 mmHg 20%
    22:00 +25°C° 0 mm 2 mps 676 mmHg 22%
    23:00 +24°C° 0 mm 2 mps 676 mmHg 24%

    Day after tomorrow, 22 September, Sunday

    Time Temperature Precipitation Wind Pressure Humidity
    00:00 +23°C° 0 mm 2 mps 676 mmHg 26%
    01:00 +21°C° 0 mm 2 mps 675 mmHg 28%
    02:00 +20°C° 0 mm 2 mps 675 mmHg 30%
    03:00 +20°C° 0 mm 3 mps 675 mmHg 31%
    04:00 +19°C° 0 mm 3 mps 675 mmHg 32%
    05:00 +19°C° 0 mm 3 mps 675 mmHg 34%
    06:00 +20°C° 0 mm 4 mps 675 mmHg 31%
    07:00 +21°C° 0 mm 4 mps 676 mmHg 29%
    08:00 +22°C° 0 mm 4 mps 677 mmHg 27%
    09:00 +26°C° 0 mm 4 mps 677 mmHg 23%
    10:00 +29°C° 0 mm 4 mps 677 mmHg 19%
    11:00 +33°C° 0 mm 3 mps 677 mmHg 15%
    12:00 +35°C° 0 mm 4 mps 677 mmHg 12%
    13:00 +36°C° 0 mm 4 mps 677 mmHg 9%
    14:00 +38°C° 0 mm 4 mps 676 mmHg 7%
    15:00 +39°C° 0 mm 5 mps 676 mmHg 7%
    16:00 +37°C° 0 mm 5 mps 676 mmHg 6%
    17:00 +37°C° 0 mm 5 mps 675 mmHg 6%
    18:00 +34°C° 0 mm 5 mps 675 mmHg 10%
    19:00 +30°C° 0 mm 6 mps 676 mmHg 14%
    20:00 +27°C° 0 mm 6 mps 676 mmHg 17%
    21:00 +24°C° 0 mm 6 mps 676 mmHg 17%
    22:00 +22°C° 0 mm 6 mps 676 mmHg 16%
    23:00 +20°C° 0 mm 6 mps 677 mmHg 15%

    23 September, Monday

    Time Temperature Precipitation Wind Pressure Humidity
    00:00 +19°C° 0 mm 5 mps 677 mmHg 18%
    01:00 +17°C° 0 mm 5 mps 677 mmHg 22%
    02:00 +15°C° 0 mm 4 mps 677 mmHg 26%
    03:00 +14°C° 0 mm 3 mps 677 mmHg 30%
    04:00 +14°C° 0 mm 3 mps 677 mmHg 35%
    05:00 +14°C° 0 mm 2 mps 677 mmHg 39%
    06:00 +15°C° 0 mm 2 mps 678 mmHg 39%
    07:00 +16°C° 0 mm 2 mps 678 mmHg 39%
    08:00 +17°C° 0 mm 3 mps 679 mmHg 39%
    09:00 +20°C° 0 mm 2 mps 679 mmHg 32%
    10:00 +23°C° 0 mm 2 mps 679 mmHg 26%
    11:00 +26°C° 0 mm 2 mps 680 mmHg 20%
    12:00 +28°C° 0 mm 1 mps 679 mmHg 17%
    13:00 +30°C° 0 mm 1 mps 679 mmHg 13%
    14:00 +32°C° 0 mm 1 mps 679 mmHg 10%
    15:00 +32°C° 0 mm 1 mps 678 mmHg 9%
    16:00 +32°C° 0 mm 1 mps 678 mmHg 9%
    17:00 +32°C° 0 mm 1 mps 678 mmHg 8%
    18:00 +29°C° 0 mm 1 mps 678 mmHg 11%
    19:00 +26°C° 0 mm 1 mps 678 mmHg 13%
    20:00 +23°C° 0 mm 1 mps 678 mmHg 15%
    21:00 +23°C° 0 mm 1 mps 679 mmHg 19%
    22:00 +21°C° 0 mm 2 mps 679 mmHg 22%
    23:00 +20°C° 0 mm 3 mps 680 mmHg 26%

    24 September, Tuesday

    Time Temperature Precipitation Wind Pressure Humidity
    00:00 +19°C° 0 mm 3 mps 680 mmHg 41%
    01:00 +19°C° 0 mm 3 mps 680 mmHg 56%
    02:00 +18°C° 0 mm 3 mps 680 mmHg 71%
    03:00 +17°C° 0 mm 3 mps 680 mmHg 75%
    04:00 +16°C° 0 mm 3 mps 680 mmHg 80%
    05:00 +14°C° 0 mm 3 mps 680 mmHg 84%
    06:00 +15°C° 0 mm 4 mps 680 mmHg 81%
    07:00 +17°C° 0 mm 4 mps 681 mmHg 78%
    08:00 +16°C° 0 mm 5 mps 681 mmHg 74%
    09:00 +17°C° 0 mm 5 mps 681 mmHg 71%
    10:00 +19°C° 0 mm 4 mps 681 mmHg 68%
    11:00 +20°C° 0 mm 4 mps 681 mmHg 64%
    12:00 +22°C° 0 mm 4 mps 681 mmHg 56%
    13:00 +25°C° 0 mm 4 mps 681 mmHg 48%
    14:00 +27°C° 0 mm 3 mps 680 mmHg 40%
    15:00 +27°C° 0 mm 3 mps 680 mmHg 36%
    16:00 +28°C° 0 mm 3 mps 680 mmHg 33%
    17:00 +28°C° 0 mm 2 mps 679 mmHg 29%
    18:00 +26°C° 0 mm 2 mps 679 mmHg 35%
    19:00 +24°C° 0 mm 2 mps 679 mmHg 41%
    20:00 +21°C° 0 mm 2 mps 679 mmHg 46%
    21:00 +20°C° 0 mm 2 mps 680 mmHg 52%
    22:00 +19°C° 0 mm 3 mps 680 mmHg 59%
    23:00 +18°C° 0 mm 3 mps 680 mmHg 65%

    25 September, Wednesday

    Time Temperature Precipitation Wind Pressure Humidity
    00:00 +18°C° 0 mm 3 mps 680 mmHg 69%
    01:00 +17°C° 0 mm 4 mps 680 mmHg 72%
    02:00 +16°C° 0 mm 5 mps 680 mmHg 76%
    03:00 +15°C° 0 mm 4 mps 680 mmHg 79%
    04:00 +14°C° 0 mm 4 mps 680 mmHg 82%
    05:00 +13°C° 0 mm 4 mps 680 mmHg 85%
    06:00 +14°C° 0 mm 5 mps 681 mmHg 80%
    07:00 +15°C° 0 mm 5 mps 682 mmHg 75%
    08:00 +15°C° 0 mm 6 mps 683 mmHg 70%
    09:00 +16°C° 0 mm 6 mps 683 mmHg 65%
    10:00 +17°C° 0 mm 6 mps 684 mmHg 61%
    11:00 +19°C° 0 mm 6 mps 684 mmHg 56%
    12:00 +21°C° 0 mm 6 mps 684 mmHg 51%
    13:00 +22°C° 0 mm 6 mps 684 mmHg 46%
    14:00 +24°C° 0 mm 6 mps 683 mmHg 41%
    15:00 +24°C° 0 mm 6 mps 683 mmHg 40%
    16:00 +23°C° 0 mm 6 mps 683 mmHg 40%
    17:00 +23°C° 0 mm 6 mps 683 mmHg 40%
    18:00 +22°C° 0 mm 4 mps 683 mmHg 44%
    19:00 +20°C° 0 mm 3 mps 683 mmHg 49%
    20:00 +18°C° 0 mm 2 mps 683 mmHg 53%
    21:00 +18°C° 0 mm 2 mps 684 mmHg 55%
    22:00 +17°C° 0 mm 3 mps 684 mmHg 57%
    23:00 +16°C° 0 mm 3 mps 684 mmHg 59%
    Show more